Погода в Зубутли-Миатли

Россия / Республика Дагестан     43°11′59″N   46°48′39″E
темп.,
°C
ветер,
м/с
пор.,
м/с
влажн.,
%
обл.,
%
осадки,
мм/ч
давл.,
гПа
погр.,
м
1 августа, вс
вс100:00+22юз117416 0.0 101011
03:00+22з225148 0.0 101018
06:00+24юз124928 0.0 101175
09:00+32св12335 0.0 1010996
12:00+35всв43285 0.0 10092378
15:00+35в64320 0.0 10081904
18:00+31в7944100 0.1 1008619
21:00+26вюв4755100 0.1 1009156
2 августа, пн
пн200:00+25юв2259100 0.1 100932
03:00+23ююз1163100 0.2 100911
06:00+25з126184 0.3 101056
09:00+30всв124293 0.3 1011793
12:00+38юв6713100 0.0 10093168
15:00+35в91018100 0.0 10091427
18:00+32в71028100 0.0 1008527
21:00+26ююв2245100 0.0 101028
3 августа, вт
вт300:00+24ююз22497 0.0 100912
03:00+23юв225385 0.0 101011
06:00+25юз2242100 0.0 101153
09:00+33ссз222670 0.0 1011967
12:00+38в33135 0.0 10092654
15:00+39в75100 0.0 10083147
18:00+34в68160 0.0 1009590
21:00+26ююв12320 0.0 101014
4 августа, ср
ср400:00+26зюз23460 0.0 101020
03:00+26зюз22470 0.0 101118
06:00+29зюз12410 0.0 101259
09:00+36зсз56270 0.0 10121482
12:00+39зсз55200 0.0 10103223
15:00+41сз65162 0.0 10093972
18:00+38с5620100 0.0 10091603
21:00+32зюз3533100 0.0 101294
5 августа, чт
чт500:00+30з3538100 0.0 101179
03:00+27зюз4647100 0.8 101196
06:00+26з595928 1.9 1013314
09:00+31сз66410 3.4 10151035
12:00+36ссз542721 0.1 10131941
15:00+37всв632324 0.1 10112928
18:00+32вюв67320 0.1 1012855
21:00+27ю34460 0.2 101345